Time,TemperatureF,DewpointF,PressureIn,WindDirection,WindDirectionDegrees,WindSpeedMPH,WindSpeedGustMPH,Humidity,HourlyPrecipIn,Conditions,Clouds,dailyrainin,SolarRadiationWatts/m^2,SoftwareType,DateUTC
2013-04-27 00:12:00,50.0,45.0,-100.00,South,182,9.0,12.0,84,0.00,,,0.00,0.000000,,2013-04-27 05:12:00,
2013-04-27 00:22:00,50.0,45.0,-100.00,South,182,9.0,12.0,84,0.00,,,0.00,0.000000,,2013-04-27 05:22:00,
2013-04-27 00:32:00,50.0,45.0,-100.00,South,182,9.0,12.0,84,0.00,,,0.00,0.000000,,2013-04-27 05:32:00,
2013-04-27 00:42:00,50.0,45.0,-100.00,South,182,9.0,12.0,84,0.00,,,0.00,0.000000,,2013-04-27 05:42:00,
2013-04-27 01:12:00,48.0,44.0,-100.00,South,188,7.0,10.0,86,0.00,,,0.00,0.000000,,2013-04-27 06:12:00,
2013-04-27 01:22:00,48.0,44.0,-100.00,South,188,7.0,10.0,86,0.00,,,0.00,0.000000,,2013-04-27 06:22:00,
2013-04-27 01:32:00,48.0,44.0,-100.00,South,188,7.0,10.0,86,0.00,,,0.00,0.000000,,2013-04-27 06:32:00,
2013-04-27 01:42:00,48.0,44.0,-100.00,South,188,7.0,10.0,86,0.00,,,0.00,0.000000,,2013-04-27 06:42:00,
2013-04-27 02:11:00,47.0,45.0,-100.00,SW,217,5.0,9.0,91,0.00,,,0.00,0.000000,,2013-04-27 07:11:00,
2013-04-27 02:21:00,47.0,45.0,-100.00,SW,217,5.0,9.0,91,0.00,,,0.00,0.000000,,2013-04-27 07:21:00,
2013-04-27 02:32:00,47.0,45.0,-100.00,SW,217,5.0,9.0,91,0.00,,,0.00,0.000000,,2013-04-27 07:32:00,
2013-04-27 02:42:00,47.0,45.0,-100.00,SW,217,5.0,9.0,91,0.00,,,0.00,0.000000,,2013-04-27 07:42:00,
2013-04-27 03:11:00,48.0,45.0,-100.00,SW,214,5.0,8.0,89,0.00,,,0.00,0.000000,,2013-04-27 08:11:00,
2013-04-27 03:21:00,48.0,45.0,-100.00,SW,214,5.0,8.0,89,0.00,,,0.00,0.000000,,2013-04-27 08:21:00,
2013-04-27 03:33:00,48.0,45.0,-100.00,SW,214,5.0,8.0,89,0.00,,,0.00,0.000000,,2013-04-27 08:33:00,
2013-04-27 03:41:00,48.0,45.0,-100.00,SW,214,5.0,8.0,89,0.00,,,0.00,0.000000,,2013-04-27 08:41:00,
2013-04-27 04:11:00,46.0,44.0,-100.00,SSW,193,5.0,6.0,91,0.00,,,0.00,0.000000,,2013-04-27 09:11:00,
2013-04-27 04:21:00,46.0,44.0,-100.00,SSW,193,5.0,6.0,91,0.00,,,0.00,0.000000,,2013-04-27 09:21:00,
2013-04-27 04:33:00,46.0,44.0,-100.00,SSW,193,5.0,6.0,91,0.00,,,0.00,0.000000,,2013-04-27 09:33:00,
2013-04-27 04:42:00,46.0,44.0,-100.00,SSW,193,5.0,6.0,91,0.00,,,0.00,0.000000,,2013-04-27 09:42:00,
2013-04-27 05:12:00,47.0,45.0,-100.00,South,189,5.0,6.0,94,0.00,,,0.00,0.000000,,2013-04-27 10:12:00,
2013-04-27 05:22:00,47.0,45.0,-100.00,South,189,5.0,6.0,94,0.00,,,0.00,0.000000,,2013-04-27 10:22:00,
2013-04-27 05:32:00,47.0,45.0,-100.00,South,189,5.0,6.0,94,0.00,,,0.00,0.000000,,2013-04-27 10:32:00,
2013-04-27 05:42:00,47.0,45.0,-100.00,South,189,5.0,6.0,94,0.00,,,0.00,0.000000,,2013-04-27 10:42:00,
2013-04-27 06:12:00,42.0,41.0,-100.00,SSW,210,0.0,6.0,98,0.00,,,0.00,0.000000,,2013-04-27 11:12:00,
2013-04-27 06:22:00,42.0,41.0,-100.00,SSW,210,0.0,6.0,98,0.00,,,0.00,0.000000,,2013-04-27 11:22:00,
2013-04-27 06:32:00,42.0,41.0,-100.00,SSW,210,0.0,6.0,98,0.00,,,0.00,0.000000,,2013-04-27 11:32:00,
2013-04-27 06:41:00,42.0,41.0,-100.00,SSW,210,0.0,6.0,98,0.00,,,0.00,0.000000,,2013-04-27 11:41:00,
2013-04-27 07:11:00,43.0,42.0,-100.00,SE,137,6.0,6.0,98,0.00,,,0.00,10.000000,,2013-04-27 12:11:00,
2013-04-27 07:22:00,43.0,42.0,-100.00,SE,137,6.0,6.0,98,0.00,,,0.00,10.000000,,2013-04-27 12:22:00,
2013-04-27 07:32:00,43.0,42.0,-100.00,SE,137,6.0,6.0,98,0.00,,,0.00,10.000000,,2013-04-27 12:32:00,
2013-04-27 07:42:00,43.0,42.0,-100.00,SE,137,6.0,6.0,98,0.00,,,0.00,10.000000,,2013-04-27 12:42:00,
2013-04-27 08:11:00,47.0,46.0,-100.00,ESE,123,4.0,6.0,97,0.00,,,0.00,114.000000,,2013-04-27 13:11:00,
2013-04-27 08:21:00,47.0,46.0,-100.00,ESE,123,4.0,6.0,97,0.00,,,0.00,114.000000,,2013-04-27 13:21:00,
2013-04-27 08:32:00,47.0,46.0,-100.00,ESE,123,4.0,6.0,97,0.00,,,0.00,114.000000,,2013-04-27 13:32:00,
2013-04-27 08:42:00,47.0,46.0,-100.00,ESE,123,4.0,6.0,97,0.00,,,0.00,114.000000,,2013-04-27 13:42:00,
2013-04-27 09:11:00,53.0,48.0,-100.00,SSE,161,5.0,8.0,83,0.00,,,0.00,304.000000,,2013-04-27 14:11:00,
2013-04-27 09:21:00,53.0,48.0,-100.00,SSE,161,5.0,8.0,83,0.00,,,0.00,304.000000,,2013-04-27 14:21:00,
2013-04-27 09:32:00,53.0,48.0,-100.00,SSE,161,5.0,8.0,83,0.00,,,0.00,304.000000,,2013-04-27 14:32:00,
2013-04-27 09:42:00,53.0,48.0,-100.00,SSE,161,5.0,8.0,83,0.00,,,0.00,304.000000,,2013-04-27 14:42:00,
2013-04-27 10:12:00,56.0,47.0,-100.00,South,174,6.0,9.0,73,0.00,,,0.00,497.000000,,2013-04-27 15:12:00,
2013-04-27 10:22:00,56.0,47.0,-100.00,South,174,6.0,9.0,73,0.00,,,0.00,497.000000,,2013-04-27 15:22:00,
2013-04-27 10:33:00,56.0,47.0,-100.00,South,174,6.0,9.0,73,0.00,,,0.00,497.000000,,2013-04-27 15:33:00,
2013-04-27 10:42:00,56.0,47.0,-100.00,South,174,6.0,9.0,73,0.00,,,0.00,497.000000,,2013-04-27 15:42:00,
2013-04-27 11:13:00,59.0,47.0,-100.00,SSE,155,10.0,16.0,64,0.00,,,0.00,721.000000,,2013-04-27 16:13:00,
2013-04-27 11:22:00,59.0,47.0,-100.00,SSE,155,10.0,16.0,64,0.00,,,0.00,721.000000,,2013-04-27 16:22:00,
2013-04-27 11:32:00,59.0,47.0,-100.00,SSE,155,10.0,16.0,64,0.00,,,0.00,721.000000,,2013-04-27 16:32:00,
2013-04-27 11:42:00,59.0,47.0,-100.00,SSE,155,10.0,16.0,64,0.00,,,0.00,721.000000,,2013-04-27 16:42:00,
2013-04-27 12:12:00,62.0,47.0,-100.00,SSE,158,11.0,19.0,59,0.00,,,0.00,898.000000,,2013-04-27 17:12:00,
2013-04-27 12:22:00,62.0,47.0,-100.00,SSE,158,11.0,19.0,59,0.00,,,0.00,898.000000,,2013-04-27 17:22:00,
2013-04-27 12:32:00,62.0,47.0,-100.00,SSE,158,11.0,19.0,59,0.00,,,0.00,898.000000,,2013-04-27 17:32:00,
2013-04-27 12:42:00,62.0,47.0,-100.00,SSE,158,11.0,19.0,59,0.00,,,0.00,898.000000,,2013-04-27 17:42:00,
2013-04-27 13:12:00,63.0,47.0,-100.00,SSE,149,9.0,17.0,55,0.00,,,0.00,893.000000,,2013-04-27 18:12:00,
2013-04-27 13:22:00,63.0,47.0,-100.00,SSE,149,9.0,17.0,55,0.00,,,0.00,893.000000,,2013-04-27 18:22:00,
2013-04-27 13:32:00,63.0,47.0,-100.00,SSE,149,9.0,17.0,55,0.00,,,0.00,893.000000,,2013-04-27 18:32:00,
2013-04-27 13:42:00,63.0,47.0,-100.00,SSE,149,9.0,17.0,55,0.00,,,0.00,893.000000,,2013-04-27 18:42:00,
2013-04-27 14:11:00,64.0,47.0,-100.00,South,188,8.0,17.0,54,0.00,,,0.00,1101.000000,,2013-04-27 19:11:00,
2013-04-27 14:21:00,64.0,47.0,-100.00,South,188,8.0,17.0,54,0.00,,,0.00,1101.000000,,2013-04-27 19:21:00,
2013-04-27 14:32:00,64.0,47.0,-100.00,South,188,8.0,17.0,54,0.00,,,0.00,1101.000000,,2013-04-27 19:32:00,
2013-04-27 14:42:00,64.0,47.0,-100.00,South,188,8.0,17.0,54,0.00,,,0.00,1101.000000,,2013-04-27 19:42:00,
2013-04-27 15:11:00,66.0,46.0,-100.00,SSE,153,7.0,14.0,49,0.00,,,0.00,1053.000000,,2013-04-27 20:11:00,
2013-04-27 15:21:00,66.0,46.0,-100.00,SSE,153,7.0,14.0,49,0.00,,,0.00,1053.000000,,2013-04-27 20:21:00,
2013-04-27 15:32:00,66.0,46.0,-100.00,SSE,153,7.0,14.0,49,0.00,,,0.00,1053.000000,,2013-04-27 20:32:00,
2013-04-27 15:42:00,66.0,46.0,-100.00,SSE,153,7.0,14.0,49,0.00,,,0.00,1053.000000,,2013-04-27 20:42:00,
2013-04-27 16:12:00,64.0,45.0,-100.00,East,91,9.0,14.0,50,0.00,,,0.00,688.000000,,2013-04-27 21:12:00,
2013-04-27 16:21:00,64.0,45.0,-100.00,East,91,9.0,14.0,50,0.00,,,0.00,688.000000,,2013-04-27 21:21:00,
2013-04-27 16:33:00,64.0,45.0,-100.00,East,91,9.0,14.0,50,0.00,,,0.00,688.000000,,2013-04-27 21:33:00,
2013-04-27 16:42:00,64.0,45.0,-100.00,East,91,9.0,14.0,50,0.00,,,0.00,688.000000,,2013-04-27 21:42:00,
2013-04-27 17:13:00,67.0,46.0,-100.00,SSE,163,7.0,12.0,47,0.00,,,0.00,578.000000,,2013-04-27 22:13:00,
2013-04-27 17:22:00,67.0,46.0,-100.00,SSE,163,7.0,12.0,47,0.00,,,0.00,578.000000,,2013-04-27 22:22:00,
2013-04-27 17:32:00,67.0,46.0,-100.00,SSE,163,7.0,12.0,47,0.00,,,0.00,578.000000,,2013-04-27 22:32:00,
2013-04-27 17:42:00,67.0,46.0,-100.00,SSE,163,7.0,12.0,47,0.00,,,0.00,578.000000,,2013-04-27 22:42:00,
2013-04-27 18:12:00,65.0,45.0,-100.00,ESE,122,8.0,14.0,49,0.00,,,0.00,616.000000,,2013-04-27 23:12:00,
2013-04-27 18:22:00,65.0,45.0,-100.00,ESE,122,8.0,14.0,49,0.00,,,0.00,616.000000,,2013-04-27 23:22:00,
2013-04-27 18:32:00,65.0,45.0,-100.00,ESE,122,8.0,14.0,49,0.00,,,0.00,616.000000,,2013-04-27 23:32:00,
2013-04-27 18:42:00,65.0,45.0,-100.00,ESE,122,8.0,14.0,49,0.00,,,0.00,616.000000,,2013-04-27 23:42:00,
2013-04-27 19:12:00,63.0,46.0,-100.00,ESE,119,11.0,18.0,54,0.00,,,0.00,290.000000,,2013-04-28 00:12:00,
2013-04-27 19:21:00,63.0,46.0,-100.00,ESE,119,11.0,18.0,54,0.00,,,0.00,290.000000,,2013-04-28 00:21:00,
2013-04-27 19:32:00,63.0,46.0,-100.00,ESE,119,11.0,18.0,54,0.00,,,0.00,290.000000,,2013-04-28 00:32:00,
2013-04-27 19:42:00,63.0,46.0,-100.00,ESE,119,11.0,18.0,54,0.00,,,0.00,290.000000,,2013-04-28 00:42:00,
2013-04-27 20:11:00,58.0,47.0,-100.00,ESE,123,11.0,18.0,66,0.00,,,0.00,124.000000,,2013-04-28 01:11:00,
2013-04-27 20:22:00,58.0,47.0,-100.00,ESE,123,11.0,18.0,66,0.00,,,0.00,124.000000,,2013-04-28 01:22:00,
2013-04-27 20:32:00,58.0,47.0,-100.00,ESE,123,11.0,18.0,66,0.00,,,0.00,124.000000,,2013-04-28 01:32:00,
2013-04-27 20:42:00,58.0,47.0,-100.00,ESE,123,11.0,18.0,66,0.00,,,0.00,124.000000,,2013-04-28 01:42:00,
2013-04-27 21:12:00,53.0,46.0,-100.00,SE,138,9.0,18.0,78,0.00,,,0.00,6.000000,,2013-04-28 02:12:00,
2013-04-27 21:22:00,53.0,46.0,-100.00,SE,138,9.0,18.0,78,0.00,,,0.00,6.000000,,2013-04-28 02:22:00,
2013-04-27 21:32:00,53.0,46.0,-100.00,SE,138,9.0,18.0,78,0.00,,,0.00,6.000000,,2013-04-28 02:32:00,
2013-04-27 21:42:00,53.0,46.0,-100.00,SE,138,9.0,18.0,78,0.00,,,0.00,6.000000,,2013-04-28 02:42:00,
2013-04-27 22:11:00,51.0,46.0,-100.00,SSE,158,7.0,11.0,82,0.00,,,0.00,0.000000,,2013-04-28 03:11:00,
2013-04-27 22:21:00,51.0,46.0,-100.00,SSE,158,7.0,11.0,82,0.00,,,0.00,0.000000,,2013-04-28 03:21:00,
2013-04-27 22:33:00,51.0,46.0,-100.00,SSE,158,7.0,11.0,82,0.00,,,0.00,0.000000,,2013-04-28 03:33:00,
2013-04-27 22:43:00,51.0,46.0,-100.00,SSE,158,7.0,11.0,82,0.00,,,0.00,0.000000,,2013-04-28 03:43:00,
2013-04-27 23:13:00,50.0,46.0,-100.00,South,175,5.0,9.0,86,0.00,,,0.00,0.000000,,2013-04-28 04:13:00,
2013-04-27 23:23:00,50.0,46.0,-100.00,South,175,5.0,9.0,86,0.00,,,0.00,0.000000,,2013-04-28 04:23:00,
2013-04-27 23:32:00,50.0,46.0,-100.00,South,175,5.0,9.0,86,0.00,,,0.00,0.000000,,2013-04-28 04:32:00,
2013-04-27 23:42:00,50.0,46.0,-100.00,South,175,5.0,9.0,86,0.00,,,0.00,0.000000,,2013-04-28 04:42:00,